EUTELSAT HOTBIRD 13C

Last updated on Thu Oct 30 2025 00:02:48 GMT+0000 (Coordinated Universal Time)

1 33459U 08065A 25302.32591028 -.00000088 00000+0 00000+0 0 9990 2 33459 2.3523 81.9104 0006142 154.2398 266.6285 1.00271861 45032
UTC large
Height (km)
Speed (km/s)
/
Latitude / Longitude
Inclination (degrees)
Orbital Period (minutes)
Azimuth
Elevation
Range (km)
Doppler Factor

Next 0 passes for location: London (51.5072 / 0.1276)

Sorry there are no passes over London.